Hourly Data Report for September 08, 2017

All times are specified in Local Standard Time (LST). Add 1 hour to adjust for Daylight Saving Time where and when it is observed.

QIKIQTARJUAQ A
NUNAVUT

67°32'48.000" N
64°01'54.000" W
5.50 m
2400577
YVM

Download Data

Hourly Data (September 2017)
Hourly Data Report for September 8, 2017
Temp Definition
°C
Dew Point Temp Definition
°C
Rel Hum Definition
%
Wind Dir Definition
10's deg

Wind Spd Definition
km/h
Visibility Definition
km
Stn Press Definition
kPa
Hmdx Definition


Wind Chill Definition


Weather Definition


TIME
00:00 Legend Double Dagger 0.4 -0.1 96 20 13 16.1 101.22     LegendNANA
01:00 Legend Double Dagger 0.2 -0.4 96 20 11 16.1 101.16     LegendNANA
02:00 Legend Double Dagger 0.3 -0.2 96 20 13 16.1 101.11     LegendNANA
03:00 Legend Double Dagger 0.3 -0.6 94 18 13 16.1 101.08     LegendNANA
04:00 Legend Double Dagger 0.5 -0.6 92 21 11 16.1 101.06     LegendNANA
05:00 Legend Double Dagger -0.6 -1.8 92 19 8 16.1 101.03   -3 LegendNANA
06:00 Legend Double Dagger 0.4 -1.4 88 19 11 16.1 100.97     LegendNANA
07:00 Legend Double Dagger 1.7 -0.9 83   0 16.1 100.93     LegendNANA
08:00 Legend Double Dagger 3.2 -1.0 74   0 16.1 100.89     LegendNANA
09:00 Legend Double Dagger 3.7 -1.7 68 29 4 16.1 100.83     LegendNANA
10:00 Legend Double Dagger 3.4 -0.2 77 36 9 16.1 100.78     LegendNANA
11:00 Legend Double Dagger 3.3 0.7 83 2 15 16.1 100.71     LegendNANA
12:00 Legend Double Dagger 1.1 0.6 97 3 11 1.2 100.65     Fog
13:00 Legend Double Dagger 0.9 0.4 96 36 11 1.6 100.59     Fog
14:00 Legend Double Dagger 0.4 0.3 99 1 5 0.6 100.54     Fog
15:00 Legend Double Dagger -0.1 -0.1 100 36 8 0.6 100.49   -3 Freezing Fog
16:00 Legend Double Dagger -0.1 -0.1 100 LegendMM 4 4.0 100.41   -1 Fog
17:00 Legend Double Dagger -0.4 -0.4 100 2 4 3.2 100.31   -2 Fog
18:00 Legend Double Dagger -0.1 -0.1 100 8 4 16.1 100.18   -1 LegendNANA
19:00 Legend Double Dagger 0.5 0.1 97 20 8 16.1 100.03     LegendNANA
20:00 Legend Double Dagger 1.5 0.0 90 22 15 16.1 99.89     LegendNANA
21:00 Legend Double Dagger 1.6 0.1 90 20 9 16.1 99.71     LegendNANA
22:00 Legend Double Dagger 2.3 -0.2 84 20 13 16.1 99.53     LegendNANA
23:00 Legend Double Dagger 3.3 -0.4 77 19 8 16.1 99.35     LegendNANA

Notes on Data Quality.

Legend

  • E = Estimated
  • M = Missing
  • NA = Not Available
  • ‡ = Partner data that is not subject to review by the National Climate Archives
Date modified: